Weather History for Warrensburg, MO

Change the Weather History Date:

Wednesday, January 9, 2013

  Actual Average (KSZL) Record (KSZL)
Temperature  
Mean Temperature 42 °F -  
Max Temperature 53 °F 36 °F 64 °F (2002)
Min Temperature 30 °F 20 °F -2 °F (1999)
Degree Days  
Heating Degree Days 24    
Moisture  
Dew Point 31 °F    
Average Humidity 73    
Maximum Humidity 100    
Minimum Humidity 44    
Precipitation  
Precipitation 0.00 in - - ()
Sea Level Pressure  
Sea Level Pressure 30.35 in    
Wind  
Wind Speed 4 mph (ENE)    
Max Wind Speed 9 mph    
Max Gust Speed -    
Visibility 10 miles    
Events      
Averages and records for this station are not official NWS values.
T = Trace of Precipitation, MM = Missing Value Source: NWS Daily Summary

Daily Weather History Graph

Daily Weather History Graph

Search for Another Location

Airport:

Trip Planner

Search our weather history database for the weather conditions in past years. The results will help you decide how hot, cold, wet, or windy it might be!

Date:

Astronomy

Jan. 09, 2013 Rise Set
Actual Time 7:33 AM CST 5:11 PM CST
Civil Twilight 7:04 AM CST 5:41 PM CST
Nautical Twilight 6:31 AM CST 6:14 PM CST
Astronomical Twilight 5:58 AM CST 6:46 PM CST
Moon 5:13 AM CST (1/9) 3:14 PM CST (1/9)
Length of Visible Light 10h 37m
Length of Day
9h 38m
Waning Crescent, 6% of the Moon is Illuminated
Jan 9
Waning Crescent
Jan 11
New
Jan 18
First Quarter
Jan 26
Full
Feb 3
Last Quarter

Hourly Weather History & Observations

Time (CST) Temp. Windchill Dew Point Humidity Pressure Visibility Wind Dir Wind Speed Gust Speed Precip Events Conditions
12:15 AM 41.0 °F 39.0 °F 32.0 °F 70% 30.20 in 10.0 mi WSW 3.5 mph - N/A   Clear
12:35 AM 39.2 °F 33.6 °F 32.0 °F 75% 30.21 in 10.0 mi SSW 8.1 mph - N/A   Clear
12:55 AM 39.2 °F 33.0 °F 32.0 °F 75% 30.21 in 10.0 mi SSW 9.2 mph - N/A   Clear
1:15 AM 39.2 °F 35.0 °F 32.0 °F 75% 30.22 in 10.0 mi WSW 5.8 mph - N/A   Clear
1:35 AM 37.4 °F 34.9 °F 32.0 °F 81% 30.22 in 10.0 mi West 3.5 mph - N/A   Clear
1:55 AM 35.6 °F 29.9 °F 32.0 °F 87% 30.23 in 10.0 mi SW 6.9 mph - N/A   Clear
2:15 AM 35.6 °F 31.7 °F 32.0 °F 87% 30.24 in 10.0 mi SW 4.6 mph - N/A   Clear
2:35 AM 37.4 °F 33.8 °F 32.0 °F 81% 30.24 in 10.0 mi SSW 4.6 mph - N/A   Clear
2:55 AM 35.6 °F 30.7 °F 32.0 °F 87% 30.26 in 10.0 mi SW 5.8 mph - N/A   Clear
3:15 AM 33.8 °F 29.6 °F 32.0 °F 93% 30.27 in 10.0 mi WSW 4.6 mph - N/A   Clear
3:35 AM 33.8 °F - 32.0 °F 93% 30.27 in 10.0 mi Calm Calm - N/A   Clear
3:55 AM 35.6 °F 31.7 °F 32.0 °F 87% 30.27 in 10.0 mi West 4.6 mph - N/A   Clear
4:15 AM 33.8 °F 30.8 °F 32.0 °F 93% 30.27 in 10.0 mi WNW 3.5 mph - N/A   Clear
4:35 AM 32.0 °F - 32.0 °F 100% 30.27 in 10.0 mi Calm Calm - N/A   Clear
4:55 AM 32.0 °F - 30.2 °F 93% 30.28 in 10.0 mi Calm Calm - N/A   Clear
5:15 AM 33.8 °F - 32.0 °F 93% 30.28 in 10.0 mi Calm Calm - N/A   Clear
5:55 AM 32.0 °F 27.5 °F 30.2 °F 93% 30.29 in 10.0 mi SSE 4.6 mph - N/A   Clear
6:15 AM 30.2 °F 23.4 °F 28.4 °F 93% 30.32 in 10.0 mi SSE 6.9 mph - N/A   Clear
6:35 AM 30.2 °F 26.7 °F 28.4 °F 93% 30.31 in 10.0 mi South 3.5 mph - N/A   Clear
6:55 AM 32.0 °F 28.7 °F 30.2 °F 93% 30.32 in 10.0 mi South 3.5 mph - N/A   Clear
7:15 AM 30.2 °F - 30.2 °F 100% 30.33 in 10.0 mi Calm Calm - N/A   Clear
8:15 AM 30.2 °F - 28.4 °F 93% 30.38 in 7.0 mi Calm Calm - N/A   Clear
8:35 AM 30.2 °F - 28.4 °F 93% 30.39 in 10.0 mi Calm Calm - N/A   Clear
8:55 AM 32.0 °F 28.7 °F 28.4 °F 87% 30.40 in 10.0 mi SE 3.5 mph - N/A   Clear
9:15 AM 32.0 °F 27.5 °F 30.2 °F 93% 30.41 in 7.0 mi SSW 4.6 mph - N/A   Clear
9:35 AM 35.6 °F 32.8 °F 32.0 °F 87% 30.41 in 10.0 mi South 3.5 mph - N/A   Clear
9:55 AM 37.4 °F - 32.0 °F 81% 30.42 in 10.0 mi Calm Calm - N/A   Clear
10:15 AM 39.2 °F 37.0 °F 33.8 °F 81% 30.42 in 10.0 mi North 3.5 mph - N/A   Clear
10:35 AM 39.2 °F - 33.8 °F 81% 30.41 in 10.0 mi Calm Calm - N/A   Clear
10:55 AM 42.8 °F - 32.0 °F 66% 30.41 in 10.0 mi Calm Calm - N/A   Clear
11:15 AM 42.8 °F - 32.0 °F 66% 30.41 in 10.0 mi Calm Calm - N/A   Clear
11:35 AM 44.6 °F - 32.0 °F 61% 30.40 in 10.0 mi Calm Calm - N/A   Clear
12:15 PM 46.4 °F 45.2 °F 32.0 °F 57% 30.39 in 10.0 mi NNW 3.5 mph - N/A   Clear
12:35 PM 46.4 °F - 32.0 °F 57% 30.38 in 10.0 mi Calm Calm - N/A   Clear
12:55 PM 50.0 °F - 33.8 °F 54% 30.37 in 10.0 mi Calm Calm - N/A   Clear
1:15 PM 50.0 °F - 33.8 °F 54% 30.37 in 10.0 mi NNE 3.5 mph - N/A   Clear
1:35 PM 51.8 °F - 32.0 °F 47% 30.37 in 10.0 mi Calm Calm - N/A   Clear
1:55 PM 51.8 °F - 32.0 °F 47% 30.38 in 10.0 mi NNE 3.5 mph - N/A   Clear
2:15 PM 53.6 °F - 32.0 °F 44% 30.37 in 10.0 mi NE 6.9 mph - N/A   Clear
2:35 PM 53.6 °F - 32.0 °F 44% 30.37 in 10.0 mi East 5.8 mph - N/A   Clear
2:55 PM 53.6 °F - 32.0 °F 44% 30.38 in 10.0 mi ENE 4.6 mph - N/A   Clear
3:15 PM 51.8 °F - 32.0 °F 47% 30.39 in 10.0 mi ENE 6.9 mph - N/A   Clear
3:35 PM 51.8 °F - 32.0 °F 47% 30.40 in 10.0 mi ENE 5.8 mph - N/A   Clear
3:55 PM 51.8 °F - 32.0 °F 47% 30.40 in 10.0 mi ENE 5.8 mph - N/A   Clear
4:15 PM 50.0 °F - 32.0 °F 50% 30.40 in 10.0 mi ENE 4.6 mph - N/A   Clear
4:35 PM 50.0 °F - 32.0 °F 50% 30.39 in 10.0 mi ENE 4.6 mph - N/A   Clear
4:55 PM 46.4 °F 44.3 °F 32.0 °F 57% 30.40 in 10.0 mi ENE 4.6 mph - N/A   Clear
5:15 PM 46.4 °F 44.3 °F 32.0 °F 57% 30.40 in 10.0 mi NE 4.6 mph - N/A   Clear
5:35 PM 46.4 °F 44.3 °F 32.0 °F 57% 30.39 in 10.0 mi NE 4.6 mph - N/A   Clear
5:55 PM 44.6 °F 42.2 °F 32.0 °F 61% 30.40 in 10.0 mi ENE 4.6 mph - N/A   Clear
6:15 PM 44.6 °F 41.4 °F 32.0 °F 61% 30.40 in 10.0 mi East 5.8 mph - N/A   Clear
6:35 PM 42.8 °F 38.6 °F 32.0 °F 66% 30.40 in 10.0 mi ENE 6.9 mph - N/A   Clear
6:55 PM 42.8 °F 39.3 °F 32.0 °F 66% 30.40 in 10.0 mi ENE 5.8 mph - N/A   Clear
7:15 PM 42.8 °F 40.1 °F 32.0 °F 66% 30.40 in 10.0 mi ENE 4.6 mph - N/A   Clear
7:55 PM 41.0 °F 37.1 °F 32.0 °F 70% 30.40 in 10.0 mi NE 5.8 mph - N/A   Clear
8:15 PM 39.2 °F 33.6 °F 32.0 °F 75% 30.40 in 10.0 mi ENE 8.1 mph - N/A   Clear
8:35 PM 41.0 °F 36.4 °F 32.0 °F 70% 30.40 in 10.0 mi East 6.9 mph - N/A   Clear
8:55 PM 41.0 °F 38.0 °F 32.0 °F 70% 30.40 in 10.0 mi East 4.6 mph - N/A   Clear
9:15 PM 39.2 °F 35.0 °F 30.2 °F 70% 30.40 in 10.0 mi ENE 5.8 mph - N/A   Clear
9:35 PM 39.2 °F 35.0 °F 30.2 °F 70% 30.40 in 10.0 mi ENE 5.8 mph - N/A   Clear
9:55 PM 37.4 °F 34.9 °F 30.2 °F 75% 30.39 in 10.0 mi NE 3.5 mph - N/A   Clear
10:15 PM 37.4 °F 33.8 °F 30.2 °F 75% 30.38 in 10.0 mi NE 4.6 mph - N/A   Clear
10:35 PM 35.6 °F 29.2 °F 30.2 °F 81% 30.38 in 10.0 mi ENE 8.1 mph - N/A   Clear
10:55 PM 35.6 °F 29.9 °F 28.4 °F 75% 30.37 in 10.0 mi NE 6.9 mph - N/A   Clear
11:15 PM 35.6 °F 29.9 °F 28.4 °F 75% 30.37 in 10.0 mi ENE 6.9 mph - N/A   Clear
11:35 PM 35.6 °F 29.9 °F 28.4 °F 75% 30.37 in 10.0 mi ENE 6.9 mph - N/A   Clear
11:55 PM 35.6 °F 29.9 °F 28.4 °F 75% 30.35 in 10.0 mi NE 6.9 mph - N/A   Clear